Location: Gleizolles
(44.4833°N, 6.7667°E)
Time: 20:53:20
(UTC+00:00)

A-11 Canister half - Pass Details

Date: 03 July 2024
Orbit: 1524 x 1684 km, 47.3° (Epoch: 18 July)

Event Time Altitude Azimuth Distance (km) Brightness Sun altitude
Rises 13:48:37 0° 287° (WNW) 4,735 11.9 55.6°
Reaches altitude 10° 13:51:42 10° 288° (WNW) 3,734 11.6 55.1°
Maximum altitude 14:01:08 90° 221° (SW) 1,532 10.1 53.6°
Drops below altitude 10° 14:10:27 10° 111° (ESE) 3,687 10.8 52.0°
Sets 14:13:29 0° 112° (ESE) 4,674 11.3 51.5°
